Location: Nairn
(57.5833°N, 3.8667°W)
Time: 01:47:37
(UTC+00:00)

Landsat 5 - Pass Details

Date: 07 August 2020
Orbit: 529 x 653 km, 98.2° (Epoch: 19 September)

Event Time Altitude Azimuth Distance (km) Brightness Sun altitude
Rises 03:21:18 0° 157° (SSE) 2,699 6.6 -7.3°
Reaches altitude 10° 03:23:23 10° 156° (SSE) 1,825 5.8 -7.1°
Maximum altitude 03:27:19 78° 70° (ENE) 584 3.6 -6.7°
Drops below altitude 10° 03:31:26 10° 346° (NNW) 1,906 6.5 -6.3°
Sets 03:33:38 0° 345° (NNW) 2,832 7.4 -6.1°
